Tracking 29892 objects as of 21-Nov-2024
HD Live streaming from Space Station
objects crossing your sky now

SL-14 R/B

Track SL-14 R/B now!
10-day predictions


NORAD ID: 23412
Int'l Code: 1994-078B
Perigee: 1,475.6 km
Apogee: 1,543.4 km
Inclination: 73.6 °
Period: 116.0 minutes
Semi major axis: 7880 km
RCS: 5.227 m2 (large)
Launch date: November 29, 1994
Source: Commonwealth of Independent States (former USSR) (CIS)
Launch site: PLESETSK MISSILE AND SPACE COMPLEX (PKMTR)

Note: This is a ROCKET BODY
Your satellite tracking list
Your tracking list is empty




NASA's NSSDC Master Catalog

Two Line Element Set (TLE):
1 23412U 94078B   24325.65404390 -.00000014  00000-0  21377-4 0  9997
2 23412  73.6161 207.6848 0043035  43.3395 345.2836 12.41003668358227
Source of the keplerian elements: AFSPC